contact:dominique.lefevre@mio.osupytheas.fr, maurice.libes@osupytheas.fr, didier.mallarino@osupytheas.fr
Project:EMSO http://www.emso-fr.org/EMSO-France
Depth: 2436.0 m
Title:EMSO Ligure Ouest : Data MII capteur AQUADOPP
Date,Latitude,Longitude,X_East,Y_North,Z_Up,Amplitude_X,Amplitude_Y,Amplitude_Z,Batterie,SoundSpeed,Heading,Pitch,Roll,Pressure,TIS,Speed,Direction
, degrees North, degrees East, m.s-1, m.s-1,m.s-1, 1, 1, 1, Volt, m.s-1, degree, degree, degree, dbar, degree_C, m.s-1, degree
2019-07-30T00:01:42,42.805,6.029,0.046,0.002,-0.027,100.0,104.0,97.0,13.4,1505.3,324.4,-0.7,1.8,2469.946,13.32,0.046,87.5
2019-07-30T00:04:43,42.805,6.029,0.033,-0.005,-0.007,100.0,102.0,97.0,13.4,1505.3,328.2,-0.7,1.9,2469.927,13.32,0.033,98.6
2019-07-30T00:07:44,42.805,6.029,0.037,0.007,-0.005,99.0,103.0,98.0,13.3,1505.3,325.7,-0.7,1.8,2469.936,13.32,0.037,79.3
2019-07-30T00:10:45,42.805,6.029,0.047,-0.006,-0.01,100.0,102.0,98.0,13.4,1505.3,326.9,-0.7,1.9,2469.956,13.32,0.047,97.3
2019-07-30T00:13:46,42.805,6.029,0.03,-0.03,-0.049,100.0,105.0,97.0,13.3,1505.3,327.9,-0.7,1.8,2469.924,13.32,0.042,135.0
2019-07-30T00:16:47,42.805,6.029,0.029,-0.008,0.0,100.0,103.0,98.0,13.3,1505.3,326.5,-0.7,1.8,2469.966,13.32,0.03,105.4
2019-07-30T00:19:48,42.805,6.029,0.064,-0.027,-0.036,101.0,102.0,97.0,13.4,1505.3,327.2,-0.7,1.8,2469.955,13.32,0.069,112.9
2019-07-30T00:22:49,42.805,6.029,0.012,-0.012,-0.02,99.0,103.0,96.0,13.4,1505.3,323.7,-0.7,1.8,2469.979,13.32,0.016,135.0
2019-07-30T00:25:50,42.805,6.029,0.032,-0.028,-0.045,101.0,102.0,98.0,13.4,1505.3,325.9,-0.7,1.8,2469.88,13.32,0.042,131.2
2019-07-30T00:28:51,42.805,6.029,0.019,-0.014,-0.013,100.0,103.0,97.0,13.4,1505.3,327.0,-0.7,1.8,2469.979,13.32,0.023,126.4
2019-07-30T00:31:52,42.805,6.029,0.029,-0.009,0.012,101.0,103.0,98.0,13.3,1505.3,325.7,-0.7,1.8,2469.93,13.32,0.03,107.2
2019-07-30T00:34:53,42.805,6.029,0.03,-0.011,-0.016,101.0,104.0,97.0,13.3,1505.3,326.8,-0.7,1.8,2469.942,13.32,0.031,110.1
2019-07-30T00:37:54,42.805,6.029,0.065,-0.019,-0.006,103.0,104.0,98.0,13.3,1505.3,324.6,-0.8,1.9,2469.958,13.32,0.067,106.3
2019-07-30T00:40:55,42.805,6.029,0.05,-0.024,-0.008,101.0,103.0,97.0,13.4,1505.3,325.4,-0.7,1.8,2469.921,13.32,0.055,115.6
2019-07-30T00:43:56,42.805,6.029,0.042,-0.001,-0.018,100.0,104.0,98.0,13.4,1505.3,325.8,-0.8,1.9,2469.964,13.32,0.042,91.4
2019-07-30T00:46:57,42.805,6.029,0.027,-0.022,-0.012,100.0,103.0,98.0,13.4,1505.3,325.4,-0.6,1.8,2469.999,13.32,0.034,129.2
2019-07-30T00:49:58,42.805,6.029,0.025,-0.019,-0.013,100.0,102.0,97.0,13.4,1505.3,323.5,-0.7,1.8,2469.923,13.32,0.031,127.2
2019-07-30T00:52:59,42.805,6.029,0.038,-0.026,-0.023,101.0,104.0,97.0,13.4,1505.3,324.3,-0.7,1.8,2469.949,13.32,0.046,124.4
2019-07-30T00:56:00,42.805,6.029,0.05,-0.003,-0.001,99.0,103.0,98.0,13.3,1505.3,326.7,-0.7,1.8,2469.957,13.32,0.05,93.4
2019-07-30T00:59:01,42.805,6.029,0.018,-0.01,-0.037,99.0,102.0,97.0,13.3,1505.3,323.6,-0.7,1.8,2469.956,13.32,0.02,119.1
2019-07-30T01:02:02,42.805,6.029,0.054,-0.027,-0.01,101.0,104.0,96.0,13.4,1505.3,326.6,-0.7,1.9,2469.984,13.32,0.06,116.6
2019-07-30T01:05:03,42.805,6.029,0.046,-0.009,0.0,99.0,105.0,97.0,13.4,1505.3,325.1,-0.7,1.8,2469.972,13.32,0.046,101.1
2019-07-30T01:08:04,42.805,6.029,0.061,-0.033,-0.032,100.0,104.0,96.0,13.3,1505.3,326.4,-0.7,1.8,2469.96,13.32,0.069,118.4
2019-07-30T01:11:05,42.805,6.029,0.047,-0.016,-0.046,99.0,104.0,98.0,13.4,1505.3,326.0,-0.7,1.9,2469.99,13.32,0.049,108.8
2019-07-30T01:14:06,42.805,6.029,0.011,-0.003,-0.012,100.0,105.0,96.0,13.4,1505.3,326.6,-0.7,1.8,2469.982,13.32,0.011,105.3
2019-07-30T01:17:07,42.805,6.029,0.045,-0.022,-0.058,101.0,104.0,97.0,13.3,1505.3,325.0,-0.7,1.8,2469.982,13.32,0.05,116.1
2019-07-30T01:20:08,42.805,6.029,0.016,-0.02,-0.048,101.0,103.0,97.0,13.3,1505.3,325.0,-0.7,1.8,2469.942,13.32,0.025,141.3
2019-07-30T01:23:09,42.805,6.029,0.038,-0.019,-0.068,100.0,104.0,97.0,13.4,1505.3,325.0,-0.7,1.8,2469.965,13.32,0.042,116.6
2019-07-30T01:26:10,42.805,6.029,0.03,0.0,-0.052,100.0,104.0,97.0,13.4,1505.3,328.0,-0.7,1.8,2469.971,13.32,0.03,90.0
2019-07-30T01:29:11,42.805,6.029,0.057,-0.014,-0.021,99.0,103.0,97.0,13.3,1505.3,327.1,-0.8,1.8,2469.989,13.32,0.058,103.8
2019-07-30T01:32:12,42.805,6.029,0.011,-0.02,-0.035,99.0,105.0,97.0,13.4,1505.3,327.4,-0.7,1.9,2469.975,13.32,0.022,151.2
2019-07-30T01:35:13,42.805,6.029,0.027,0.002,-0.012,99.0,105.0,96.0,13.4,1505.3,327.6,-0.8,1.8,2469.96,13.32,0.027,85.8
2019-07-30T01:38:14,42.805,6.029,0.048,-0.008,-0.004,99.0,104.0,97.0,13.3,1505.3,326.7,-0.7,1.9,2469.96,13.32,0.048,99.5
2019-07-30T01:41:15,42.805,6.029,0.032,-0.012,-0.018,101.0,103.0,97.0,13.4,1505.3,327.5,-0.7,1.9,2469.973,13.32,0.034,110.6
2019-07-30T01:44:16,42.805,6.029,0.031,-0.009,-0.024,101.0,106.0,97.0,13.3,1505.3,324.3,-0.7,1.8,2470.038,13.32,0.032,106.2
2019-07-30T01:47:17,42.805,6.029,0.056,-0.024,-0.035,100.0,104.0,97.0,13.3,1505.3,325.2,-0.7,1.8,2469.976,13.32,0.06,113.2
2019-07-30T01:50:18,42.805,6.029,0.057,-0.01,-0.024,100.0,104.0,97.0,13.4,1505.3,324.5,-0.7,1.9,2469.982,13.32,0.057,99.9
2019-07-30T01:53:19,42.805,6.029,0.063,0.0,-0.013,100.0,104.0,97.0,13.4,1505.3,326.2,-0.7,1.8,2470.013,13.32,0.062,90.0
2019-07-30T01:56:20,42.805,6.029,0.052,0.009,-0.046,100.0,105.0,97.0,13.4,1505.3,323.2,-0.8,1.8,2469.966,13.32,0.052,80.2
2019-07-30T01:59:21,42.805,6.029,0.028,-0.001,-0.02,101.0,107.0,97.0,13.4,1505.3,323.7,-0.7,1.8,2469.993,13.32,0.028,92.0
2019-07-30T02:02:22,42.805,6.029,0.039,-0.019,-0.024,99.0,104.0,97.0,13.4,1505.3,324.2,-0.7,1.9,2469.999,13.32,0.043,116.0
2019-07-30T02:05:23,42.805,6.029,0.04,-0.002,-0.033,100.0,104.0,98.0,13.4,1505.3,326.6,-0.7,1.9,2469.948,13.32,0.04,92.9
2019-07-30T02:08:24,42.805,6.029,0.027,0.005,-0.036,99.0,104.0,98.0,13.4,1505.3,326.1,-0.7,1.9,2469.961,13.32,0.027,79.5
2019-07-30T02:11:25,42.805,6.029,0.046,-0.008,-0.052,99.0,104.0,97.0,13.4,1505.3,323.5,-0.7,1.9,2470.004,13.32,0.046,99.9
2019-07-30T02:14:26,42.805,6.029,0.033,-0.006,-0.036,100.0,105.0,98.0,13.3,1505.3,323.5,-0.7,1.8,2470.027,13.32,0.033,100.3
2019-07-30T02:17:27,42.805,6.029,0.036,-0.008,-0.044,99.0,105.0,99.0,13.4,1505.3,323.1,-0.7,1.8,2470.028,13.32,0.036,102.5
2019-07-30T02:20:28,42.805,6.029,0.018,0.005,-0.058,100.0,106.0,98.0,13.4,1505.3,323.4,-0.7,1.8,2469.985,13.32,0.018,74.5
2019-07-30T02:23:29,42.805,6.029,0.02,-0.007,-0.045,100.0,106.0,97.0,13.4,1505.3,326.9,-0.7,1.9,2469.994,13.32,0.021,109.3
2019-07-30T02:26:30,42.805,6.029,0.043,-0.009,-0.03,100.0,105.0,98.0,13.4,1505.3,325.2,-0.7,1.8,2470.011,13.32,0.043,101.8
2019-07-30T02:29:31,42.805,6.029,0.041,-0.009,-0.036,101.0,105.0,98.0,13.4,1505.3,325.9,-0.7,1.8,2470.048,13.32,0.041,102.4
2019-07-30T02:32:32,42.805,6.029,0.046,0.002,-0.037,100.0,106.0,98.0,13.4,1505.3,325.3,-0.7,1.8,2470.041,13.32,0.046,87.5
2019-07-30T02:35:33,42.805,6.029,0.045,-0.003,-0.03,101.0,106.0,97.0,13.4,1505.3,326.5,-0.7,1.9,2470.009,13.32,0.045,93.8
2019-07-30T02:38:34,42.805,6.029,0.031,0.007,-0.042,100.0,104.0,97.0,13.4,1505.3,324.4,-0.7,1.9,2470.011,13.32,0.031,77.3
2019-07-30T02:41:35,42.805,6.029,0.01,-0.006,-0.05,99.0,106.0,97.0,13.3,1505.3,325.7,-0.7,1.9,2470.023,13.32,0.011,121.0
2019-07-30T02:44:36,42.805,6.029,0.037,-0.006,-0.041,101.0,105.0,97.0,13.3,1505.3,325.8,-0.7,1.8,2470.04,13.32,0.037,99.2
2019-07-30T02:47:37,42.805,6.029,0.026,-0.024,-0.038,100.0,105.0,97.0,13.3,1505.3,328.0,-0.7,1.8,2470.043,13.32,0.035,132.7
2019-07-30T02:50:38,42.805,6.029,0.041,0.017,-0.038,101.0,105.0,97.0,13.4,1505.3,327.9,-0.7,1.8,2470.051,13.32,0.044,67.5
2019-07-30T02:53:39,42.805,6.029,0.041,-0.001,-0.035,100.0,104.0,98.0,13.4,1505.3,327.6,-0.7,1.8,2470.017,13.32,0.041,91.4
2019-07-30T02:56:40,42.805,6.029,0.022,-0.002,-0.01,101.0,104.0,98.0,13.4,1505.3,325.9,-0.7,1.8,2470.05,13.32,0.022,95.2
2019-07-30T02:59:41,42.805,6.029,0.012,0.006,-0.051,101.0,107.0,97.0,13.3,1505.3,324.4,-0.7,1.9,2470.02,13.32,0.013,63.4
2019-07-30T03:02:42,42.805,6.029,0.026,-0.003,-0.043,100.0,105.0,98.0,13.4,1505.3,326.2,-0.7,1.9,2470.018,13.32,0.026,96.6
2019-07-30T03:05:43,42.805,6.029,0.041,-0.004,-0.039,101.0,105.0,98.0,13.4,1505.3,326.6,-0.7,1.9,2470.052,13.32,0.041,95.6
2019-07-30T03:08:44,42.805,6.029,0.028,0.001,-0.051,101.0,108.0,98.0,13.3,1505.3,324.8,-0.7,1.9,2470.055,13.32,0.028,88.0
2019-07-30T03:11:45,42.805,6.029,0.019,-0.001,-0.02,102.0,105.0,97.0,13.3,1505.3,325.9,-0.7,1.8,2470.045,13.32,0.019,93.0
2019-07-30T03:14:46,42.805,6.029,0.039,-0.003,-0.031,100.0,105.0,97.0,13.4,1505.3,325.0,-0.7,1.9,2470.007,13.32,0.039,94.4
2019-07-30T03:17:47,42.805,6.029,0.04,-0.028,-0.021,101.0,106.0,97.0,13.3,1505.3,326.5,-0.7,1.8,2470.069,13.32,0.048,125.0
2019-07-30T03:20:48,42.805,6.029,0.024,-0.001,-0.043,100.0,105.0,98.0,13.4,1505.3,325.2,-0.7,1.8,2470.066,13.32,0.024,92.4
2019-07-30T03:23:49,42.805,6.029,0.024,-0.002,0.003,100.0,104.0,98.0,13.3,1505.3,324.9,-0.7,1.8,2470.084,13.32,0.024,94.8
2019-07-30T03:26:50,42.805,6.029,0.035,-0.001,-0.045,101.0,105.0,97.0,13.3,1505.3,324.3,-0.7,1.8,2470.063,13.32,0.035,91.6
2019-07-30T03:29:51,42.805,6.029,0.031,-0.011,-0.017,101.0,104.0,97.0,13.3,1505.3,327.5,-0.7,1.9,2470.07,13.32,0.032,109.5
2019-07-30T03:32:52,42.805,6.029,0.04,-0.013,-0.047,99.0,106.0,97.0,13.4,1505.3,324.3,-0.7,1.8,2470.125,13.32,0.042,108.0
2019-07-30T03:35:53,42.805,6.029,0.045,-0.001,-0.002,101.0,102.0,99.0,13.3,1505.3,326.3,-0.7,1.8,2470.025,13.32,0.045,91.3
2019-07-30T03:38:54,42.805,6.029,0.035,-0.004,-0.015,101.0,103.0,96.0,13.4,1505.3,324.5,-0.8,1.9,2470.072,13.32,0.035,96.5
2019-07-30T03:41:55,42.805,6.029,0.045,-0.023,-0.046,99.0,106.0,97.0,13.4,1505.3,322.7,-0.7,1.8,2470.096,13.32,0.05,117.1
2019-07-30T03:44:56,42.805,6.029,0.037,0.002,-0.028,101.0,105.0,98.0,13.4,1505.3,324.6,-0.7,1.9,2470.118,13.32,0.037,86.9
2019-07-30T03:47:57,42.805,6.029,0.037,-0.018,-0.036,100.0,104.0,98.0,13.4,1505.3,325.6,-0.7,1.8,2470.124,13.32,0.041,115.9
2019-07-30T03:50:58,42.805,6.029,0.042,-0.005,-0.007,101.0,105.0,98.0,13.4,1505.3,324.1,-0.7,1.8,2470.077,13.32,0.042,96.8
2019-07-30T03:53:59,42.805,6.029,0.028,0.0,-0.015,100.0,106.0,97.0,13.4,1505.3,327.1,-0.7,1.9,2470.079,13.32,0.028,90.0
2019-07-30T03:57:00,42.805,6.029,0.036,0.017,-0.016,100.0,106.0,98.0,13.4,1505.3,323.5,-0.7,1.8,2470.086,13.32,0.039,64.7
2019-07-30T04:00:01,42.805,6.029,0.038,0.005,-0.041,101.0,105.0,97.0,13.4,1505.3,325.3,-0.7,1.8,2470.12,13.32,0.038,82.5
2019-07-30T04:03:02,42.805,6.029,0.013,0.005,-0.01,101.0,106.0,97.0,13.4,1505.3,326.8,-0.7,1.8,2470.094,13.32,0.013,69.0
2019-07-30T04:06:03,42.805,6.029,0.03,0.006,-0.013,101.0,107.0,97.0,13.3,1505.3,324.4,-0.7,1.8,2470.115,13.32,0.03,78.7
2019-07-30T04:09:04,42.805,6.029,0.031,0.004,-0.005,100.0,106.0,97.0,13.4,1505.3,326.1,-0.7,1.8,2470.099,13.32,0.031,82.7
2019-07-30T04:12:05,42.805,6.029,0.027,0.011,-0.014,100.0,106.0,97.0,13.4,1505.3,324.7,-0.7,1.9,2470.102,13.32,0.029,67.8
2019-07-30T04:15:06,42.805,6.029,0.042,0.0,-0.038,100.0,107.0,97.0,13.3,1505.3,324.4,-0.7,1.8,2470.103,13.32,0.042,90.0
2019-07-30T04:18:07,42.805,6.029,0.053,-0.021,-0.091,100.0,105.0,97.0,13.4,1505.3,326.0,-0.7,1.9,2470.078,13.32,0.057,111.6
2019-07-30T04:21:08,42.805,6.029,0.059,0.005,0.005,100.0,106.0,98.0,13.4,1505.3,325.1,-0.7,1.8,2470.085,13.32,0.059,85.2
2019-07-30T04:24:09,42.805,6.029,0.028,0.008,-0.045,100.0,105.0,98.0,13.4,1505.3,324.5,-0.7,1.8,2470.073,13.32,0.029,74.1
2019-07-30T04:27:10,42.805,6.029,0.05,0.0,-0.025,100.0,106.0,97.0,13.4,1505.3,327.8,-0.8,1.8,2470.108,13.32,0.05,90.0
2019-07-30T04:30:11,42.805,6.029,0.05,-0.008,-0.023,99.0,105.0,97.0,13.4,1505.3,323.4,-0.7,1.8,2470.145,13.32,0.05,99.1
2019-07-30T04:33:12,42.805,6.029,0.035,-0.009,-0.032,101.0,106.0,97.0,13.4,1505.3,323.3,-0.7,1.8,2470.098,13.32,0.036,104.4
2019-07-30T04:36:13,42.805,6.029,0.017,0.008,-0.048,100.0,105.0,98.0,13.3,1505.3,327.8,-0.7,1.8,2470.088,13.32,0.018,64.8
2019-07-30T04:39:14,42.805,6.029,0.046,0.027,0.01,100.0,105.0,96.0,13.3,1505.3,327.9,-0.7,1.8,2470.111,13.32,0.053,59.6
2019-07-30T04:42:15,42.805,6.029,0.042,-0.002,-0.023,101.0,105.0,96.0,13.3,1505.3,327.2,-0.8,1.8,2470.119,13.32,0.042,92.7
2019-07-30T04:45:16,42.805,6.029,0.033,0.0,-0.004,100.0,106.0,97.0,13.4,1505.3,326.5,-0.7,1.8,2470.117,13.32,0.033,90.0
2019-07-30T04:48:17,42.805,6.029,0.06,0.01,-0.012,101.0,103.0,96.0,13.4,1505.3,324.7,-0.7,1.9,2470.106,13.32,0.06,80.5
2019-07-30T04:51:18,42.805,6.029,0.005,-0.023,-0.046,101.0,104.0,97.0,13.3,1505.3,326.3,-0.7,1.8,2470.102,13.32,0.023,167.7
2019-07-30T04:54:19,42.805,6.029,0.029,0.009,-0.028,102.0,105.0,96.0,13.3,1505.3,326.7,-0.7,1.9,2470.135,13.32,0.03,72.8
2019-07-30T04:57:20,42.805,6.029,0.033,0.0,-0.037,101.0,105.0,97.0,13.3,1505.3,323.6,-0.7,1.8,2470.11,13.32,0.033,90.0
2019-07-30T05:00:21,42.805,6.029,0.027,-0.031,-0.031,101.0,106.0,97.0,13.4,1505.3,324.5,-0.7,1.8,2470.127,13.32,0.041,138.9
2019-07-30T05:03:22,42.805,6.029,0.038,-0.001,-0.02,100.0,105.0,98.0,13.3,1505.3,323.7,-0.7,1.8,2470.07,13.32,0.038,91.5
2019-07-30T05:06:23,42.805,6.029,0.048,-0.007,-0.018,100.0,103.0,97.0,13.4,1505.3,326.1,-0.8,1.8,2470.136,13.32,0.048,98.3
2019-07-30T05:09:24,42.805,6.029,0.022,0.0,-0.017,101.0,104.0,97.0,13.3,1505.3,325.5,-0.7,1.8,2470.109,13.32,0.022,90.0
2019-07-30T05:12:25,42.805,6.029,0.047,0.0,-0.025,100.0,105.0,98.0,13.4,1505.3,324.9,-0.7,1.9,2470.094,13.32,0.047,90.0
2019-07-30T05:15:26,42.805,6.029,0.003,-0.001,-0.043,100.0,106.0,98.0,13.3,1505.3,328.1,-0.7,1.8,2470.111,13.32,0.003,108.4
2019-07-30T05:18:27,42.805,6.029,0.061,0.002,-0.037,102.0,103.0,97.0,13.4,1505.3,326.5,-0.7,1.9,2470.086,13.32,0.061,88.1
2019-07-30T05:21:28,42.805,6.029,0.047,0.008,-0.013,101.0,104.0,98.0,13.4,1505.3,326.6,-0.7,1.9,2470.139,13.32,0.047,80.3
2019-07-30T05:24:29,42.805,6.029,0.033,0.025,-0.004,100.0,105.0,98.0,13.3,1505.3,323.3,-0.7,1.8,2470.081,13.32,0.041,52.9
2019-07-30T05:27:30,42.805,6.029,0.036,0.0,-0.016,100.0,104.0,98.0,13.3,1505.3,323.4,-0.7,1.8,2470.103,13.32,0.036,90.0
2019-07-30T05:30:31,42.805,6.029,0.057,-0.002,0.013,101.0,105.0,97.0,13.4,1505.3,322.8,-0.7,1.8,2470.127,13.32,0.057,92.0
2019-07-30T05:33:32,42.805,6.029,0.037,0.013,-0.037,100.0,106.0,98.0,13.3,1505.3,325.7,-0.7,1.9,2470.132,13.32,0.039,70.6
2019-07-30T05:36:33,42.805,6.029,0.049,0.008,-0.018,100.0,105.0,99.0,13.3,1505.3,324.6,-0.7,1.8,2470.084,13.32,0.049,80.7
2019-07-30T05:39:34,42.805,6.029,0.021,0.01,-0.026,102.0,105.0,97.0,13.3,1505.3,327.1,-0.7,1.9,2470.108,13.32,0.023,64.5
2019-07-30T05:42:35,42.805,6.029,0.047,0.003,-0.03,101.0,105.0,98.0,13.4,1505.3,328.2,-0.7,1.8,2470.104,13.32,0.047,86.4
2019-07-30T05:45:36,42.805,6.029,0.051,0.002,-0.023,103.0,107.0,97.0,13.4,1505.3,327.5,-0.7,1.9,2470.142,13.32,0.051,87.8
2019-07-30T05:48:37,42.805,6.029,0.034,0.003,0.011,102.0,105.0,99.0,13.4,1505.3,324.3,-0.7,1.8,2470.118,13.32,0.034,85.0
2019-07-30T05:51:38,42.805,6.029,0.05,0.0,-0.042,101.0,104.0,99.0,13.3,1505.3,327.7,-0.8,1.8,2470.135,13.32,0.05,90.0
2019-07-30T05:54:39,42.805,6.029,0.036,-0.009,-0.032,101.0,106.0,98.0,13.3,1505.3,328.4,-0.7,1.8,2470.11,13.32,0.037,104.0
2019-07-30T05:57:40,42.805,6.029,0.051,0.0,-0.03,100.0,105.0,98.0,13.4,1505.3,328.0,-0.7,1.8,2470.074,13.32,0.051,90.0
2019-07-30T06:00:41,42.805,6.029,0.046,-0.002,-0.009,101.0,106.0,98.0,13.4,1505.3,327.6,-0.7,1.8,2470.105,13.32,0.046,92.5
2019-07-30T06:03:42,42.805,6.029,0.019,-0.011,-0.051,100.0,107.0,98.0,13.3,1505.3,327.6,-0.7,1.8,2470.116,13.32,0.021,120.1
2019-07-30T06:06:43,42.805,6.029,0.023,-0.004,-0.023,100.0,107.0,98.0,13.3,1505.3,322.9,-0.7,1.8,2470.094,13.32,0.023,99.9
2019-07-30T06:09:44,42.805,6.029,0.023,0.007,-0.011,101.0,104.0,97.0,13.4,1505.3,323.5,-0.7,1.8,2470.116,13.32,0.024,73.1
2019-07-30T06:12:45,42.805,6.029,0.037,0.009,-0.018,101.0,107.0,99.0,13.3,1505.3,325.5,-0.7,1.8,2470.147,13.32,0.038,76.3
2019-07-30T06:15:46,42.805,6.029,0.04,0.025,-0.034,101.0,106.0,99.0,13.3,1505.3,328.1,-0.7,1.8,2470.111,13.32,0.047,58.0
2019-07-30T06:18:47,42.805,6.029,0.034,-0.012,-0.021,102.0,105.0,97.0,13.4,1505.3,325.7,-0.7,1.8,2470.126,13.32,0.036,109.4
2019-07-30T06:21:48,42.805,6.029,0.023,-0.012,-0.015,101.0,106.0,97.0,13.3,1505.3,327.7,-0.8,1.8,2470.105,13.32,0.025,117.6
2019-07-30T06:24:49,42.805,6.029,0.028,-0.008,-0.026,102.0,106.0,98.0,13.4,1505.3,327.2,-0.7,1.9,2470.085,13.32,0.029,105.9
2019-07-30T06:27:50,42.805,6.029,0.007,-0.01,-0.053,101.0,105.0,97.0,13.4,1505.3,326.7,-0.8,1.8,2470.147,13.32,0.012,145.0
2019-07-30T06:30:51,42.805,6.029,0.018,0.0,-0.003,101.0,106.0,97.0,13.4,1505.3,324.2,-0.7,1.8,2470.105,13.32,0.018,90.0
2019-07-30T06:33:52,42.805,6.029,0.039,0.01,-0.009,100.0,106.0,96.0,13.4,1505.3,322.8,-0.7,1.8,2470.148,13.32,0.04,75.6
2019-07-30T06:36:53,42.805,6.029,0.05,0.005,-0.026,101.0,104.0,98.0,13.4,1505.3,323.3,-0.7,1.8,2470.064,13.32,0.05,84.3
2019-07-30T06:39:54,42.805,6.029,0.014,0.002,-0.053,100.0,106.0,99.0,13.3,1505.3,324.1,-0.8,1.8,2470.131,13.32,0.014,81.9
2019-07-30T06:42:55,42.805,6.029,0.043,0.008,-0.007,102.0,104.0,98.0,13.4,1505.3,326.9,-0.7,1.8,2470.093,13.32,0.043,79.5
2019-07-30T06:45:56,42.805,6.029,0.038,-0.022,-0.032,102.0,106.0,98.0,13.4,1505.3,326.4,-0.7,1.8,2470.1,13.32,0.043,120.1
2019-07-30T06:48:57,42.805,6.029,0.032,-0.004,0.019,102.0,107.0,97.0,13.3,1505.3,327.7,-0.7,1.8,2470.119,13.32,0.032,97.1
2019-07-30T06:51:58,42.805,6.029,0.026,0.023,-0.014,103.0,105.0,96.0,13.3,1505.3,327.2,-0.7,1.9,2470.103,13.32,0.034,48.5
2019-07-30T06:54:59,42.805,6.029,0.041,0.0,-0.025,102.0,106.0,98.0,13.4,1505.3,325.4,-0.7,1.8,2470.092,13.32,0.041,90.0
2019-07-30T06:58:00,42.805,6.029,0.046,0.006,-0.012,100.0,104.0,98.0,13.3,1505.3,325.3,-0.7,1.8,2470.13,13.32,0.046,82.6
2019-07-30T07:01:01,42.805,6.029,0.037,0.004,-0.051,103.0,106.0,98.0,13.3,1505.3,328.0,-0.7,1.9,2470.105,13.32,0.037,83.8
2019-07-30T07:04:02,42.805,6.029,0.045,-0.009,-0.046,102.0,104.0,98.0,13.4,1505.3,327.8,-0.7,1.9,2470.1,13.32,0.045,101.3
2019-07-30T07:07:03,42.805,6.029,0.038,-0.007,-0.029,102.0,105.0,98.0,13.4,1505.3,327.8,-0.7,1.8,2470.098,13.32,0.038,100.4
2019-07-30T07:10:04,42.805,6.029,0.024,-0.012,-0.017,100.0,105.0,99.0,13.4,1505.3,326.5,-0.7,1.9,2470.107,13.32,0.026,116.6
2019-07-30T07:13:05,42.805,6.029,0.039,-0.009,-0.009,101.0,107.0,99.0,13.4,1505.3,328.5,-0.7,1.8,2470.081,13.32,0.04,103.0
2019-07-30T07:16:06,42.805,6.029,0.044,0.003,0.005,100.0,106.0,98.0,13.4,1505.3,327.7,-0.7,1.8,2470.092,13.32,0.044,86.1
2019-07-30T07:19:07,42.805,6.029,0.027,0.027,0.008,101.0,106.0,98.0,13.4,1505.3,325.5,-0.7,1.8,2470.079,13.32,0.038,45.0
2019-07-30T07:22:08,42.805,6.029,0.051,0.01,-0.012,103.0,103.0,99.0,13.4,1505.3,327.3,-0.7,1.8,2470.069,13.32,0.051,78.9
2019-07-30T07:25:09,42.805,6.029,0.044,0.012,0.008,101.0,107.0,98.0,13.3,1505.3,324.4,-0.7,1.9,2470.047,13.32,0.045,74.7
2019-07-30T07:28:10,42.805,6.029,0.021,0.019,-0.033,101.0,106.0,98.0,13.4,1505.3,324.3,-0.7,1.8,2470.079,13.32,0.028,47.9
2019-07-30T07:31:11,42.805,6.029,0.035,0.01,-0.006,100.0,107.0,98.0,13.4,1505.3,324.3,-0.7,1.8,2470.105,13.32,0.036,74.1
2019-07-30T07:34:12,42.805,6.029,0.024,0.023,-0.013,101.0,107.0,97.0,13.3,1505.3,326.3,-0.7,1.8,2470.083,13.32,0.033,46.2
2019-07-30T07:37:13,42.805,6.029,0.018,0.012,-0.023,102.0,106.0,98.0,13.4,1505.3,327.1,-0.7,1.9,2470.078,13.32,0.021,56.3
2019-07-30T07:40:14,42.805,6.029,0.025,0.003,-0.04,101.0,107.0,96.0,13.4,1505.3,327.2,-0.7,1.9,2470.108,13.32,0.025,83.2
2019-07-30T07:43:15,42.805,6.029,0.029,-0.001,-0.016,102.0,105.0,98.0,13.3,1505.3,327.2,-0.7,1.8,2470.077,13.32,0.029,92.0
2019-07-30T07:46:16,42.805,6.029,0.044,-0.011,-0.013,102.0,104.0,98.0,13.3,1505.3,328.0,-0.7,1.8,2470.046,13.32,0.045,104.0
2019-07-30T07:49:17,42.805,6.029,0.044,-0.003,-0.038,101.0,106.0,98.0,13.4,1505.3,325.3,-0.7,1.8,2470.047,13.32,0.044,93.9
2019-07-30T07:52:18,42.805,6.029,0.044,0.0,0.0,100.0,108.0,98.0,13.3,1505.3,327.0,-0.7,1.8,2470.066,13.32,0.044,90.0
2019-07-30T07:55:19,42.805,6.029,0.044,-0.004,-0.029,102.0,108.0,97.0,13.3,1505.3,327.8,-0.7,1.8,2470.049,13.32,0.044,95.2
2019-07-30T07:58:20,42.805,6.029,0.035,0.001,-0.05,101.0,106.0,98.0,13.3,1505.3,327.9,-0.7,1.8,2470.043,13.32,0.035,88.4
2019-07-30T08:01:21,42.805,6.029,0.037,0.001,-0.013,101.0,107.0,97.0,13.4,1505.3,325.6,-0.7,1.9,2470.054,13.32,0.037,88.5
2019-07-30T08:04:22,42.805,6.029,0.048,0.01,-0.004,102.0,108.0,97.0,13.4,1505.3,326.8,-0.8,1.8,2470.057,13.32,0.049,78.2
2019-07-30T08:07:23,42.805,6.029,0.032,-0.013,-0.015,101.0,108.0,97.0,13.4,1505.3,327.4,-0.8,1.8,2470.038,13.32,0.034,112.1
2019-07-30T08:10:24,42.805,6.029,0.032,0.004,-0.004,100.0,105.0,99.0,13.4,1505.3,328.3,-0.7,1.8,2470.081,13.32,0.032,82.9
2019-07-30T08:13:25,42.805,6.029,0.026,0.001,-0.034,101.0,106.0,97.0,13.4,1505.3,324.3,-0.7,1.8,2470.075,13.32,0.026,87.8
2019-07-30T08:16:26,42.805,6.029,0.032,-0.01,-0.008,100.0,108.0,98.0,13.3,1505.3,324.7,-0.7,1.8,2470.033,13.32,0.033,107.4
2019-07-30T08:19:27,42.805,6.029,0.034,-0.002,-0.035,101.0,107.0,97.0,13.4,1505.3,326.2,-0.7,1.8,2470.027,13.32,0.034,93.4
2019-07-30T08:22:28,42.805,6.029,0.041,-0.002,-0.055,101.0,106.0,98.0,13.3,1505.3,326.9,-0.7,1.9,2470.046,13.32,0.041,92.8
2019-07-30T08:25:29,42.805,6.029,0.043,0.0,-0.001,101.0,107.0,97.0,13.3,1505.3,328.3,-0.7,1.8,2470.03,13.32,0.043,90.0
2019-07-30T08:28:30,42.805,6.029,0.027,-0.017,-0.022,102.0,109.0,97.0,13.3,1505.3,328.1,-0.7,1.9,2470.017,13.32,0.031,122.2
2019-07-30T08:31:31,42.805,6.029,0.039,0.001,-0.026,101.0,107.0,97.0,13.4,1505.3,325.2,-0.7,1.8,2470.038,13.32,0.039,88.5
2019-07-30T08:34:32,42.805,6.029,0.025,0.012,-0.02,102.0,107.0,98.0,13.4,1505.3,324.7,-0.7,1.8,2470.026,13.32,0.027,64.4
2019-07-30T08:37:33,42.805,6.029,0.037,-0.013,-0.018,101.0,107.0,98.0,13.3,1505.3,325.9,-0.7,1.8,2470.042,13.32,0.039,109.4
2019-07-30T08:40:34,42.805,6.029,0.044,0.014,-0.027,101.0,104.0,99.0,13.4,1505.3,324.2,-0.7,1.8,2470.012,13.32,0.046,72.4
2019-07-30T08:43:35,42.805,6.029,0.037,0.003,-0.016,100.0,106.0,97.0,13.3,1505.3,328.4,-0.7,1.9,2470.029,13.32,0.037,85.4
2019-07-30T08:46:36,42.805,6.029,0.045,-0.023,-0.042,101.0,105.0,98.0,13.4,1505.3,324.7,-0.7,1.9,2470.048,13.32,0.05,117.1
2019-07-30T08:49:37,42.805,6.029,0.031,0.006,-0.036,101.0,106.0,98.0,13.3,1505.3,324.0,-0.8,1.8,2470.001,13.32,0.031,79.0
2019-07-30T08:52:38,42.805,6.029,0.056,-0.013,-0.047,102.0,105.0,98.0,13.4,1505.3,325.8,-0.7,1.9,2470.015,13.32,0.057,103.1
2019-07-30T08:55:39,42.805,6.029,0.047,0.013,-0.008,102.0,104.0,97.0,13.4,1505.3,326.2,-0.7,1.8,2470.032,13.32,0.048,74.5
2019-07-30T08:58:41,42.805,6.029,0.04,-0.008,-0.023,102.0,105.0,97.0,13.4,1505.3,327.9,-0.7,1.8,2470.017,13.32,0.04,101.3
2019-07-30T09:01:41,42.805,6.029,0.048,0.014,-0.023,102.0,107.0,98.0,13.4,1505.3,327.5,-0.7,1.8,2470.013,13.32,0.05,73.7
2019-07-30T09:04:42,42.805,6.029,0.029,0.009,-0.02,101.0,107.0,98.0,13.3,1505.3,324.0,-0.7,1.8,2470.04,13.32,0.03,72.8
2019-07-30T09:07:43,42.805,6.029,0.024,-0.012,-0.007,101.0,106.0,98.0,13.4,1505.3,325.8,-0.7,1.9,2470.001,13.32,0.026,116.6
2019-07-30T09:10:44,42.805,6.029,0.032,-0.024,-0.01,101.0,104.0,99.0,13.3,1505.3,323.0,-0.7,1.9,2470.023,13.32,0.04,126.9
2019-07-30T09:13:45,42.805,6.029,0.034,-0.016,-0.032,102.0,105.0,99.0,13.4,1505.3,328.4,-0.7,1.9,2470.02,13.32,0.037,115.2
2019-07-30T09:16:46,42.805,6.029,0.03,-0.017,-0.028,101.0,107.0,97.0,13.4,1505.3,326.0,-0.7,1.8,2470.025,13.32,0.034,119.5
2019-07-30T09:19:47,42.805,6.029,0.051,-0.002,-0.004,102.0,109.0,98.0,13.4,1505.3,326.5,-0.7,1.8,2470.001,13.32,0.051,92.2
2019-07-30T09:22:48,42.805,6.029,0.051,0.004,0.013,101.0,108.0,98.0,13.4,1505.3,325.1,-0.7,1.8,2470.069,13.32,0.051,85.5
2019-07-30T09:25:49,42.805,6.029,0.036,-0.019,-0.019,100.0,107.0,98.0,13.4,1505.3,327.8,-0.8,1.8,2470.026,13.32,0.04,117.8
2019-07-30T09:28:50,42.805,6.029,0.036,-0.008,-0.016,101.0,104.0,98.0,13.4,1505.3,327.6,-0.7,1.8,2470.029,13.32,0.036,102.5
2019-07-30T09:31:51,42.805,6.029,0.029,-0.026,-0.021,102.0,105.0,98.0,13.4,1505.3,326.6,-0.7,1.8,2470.039,13.32,0.038,131.9
2019-07-30T09:34:52,42.805,6.029,0.03,-0.007,-0.021,101.0,105.0,98.0,13.4,1505.3,325.9,-0.7,1.8,2469.975,13.32,0.03,103.1
2019-07-30T09:37:53,42.805,6.029,0.036,0.017,-0.022,101.0,106.0,97.0,13.3,1505.3,325.0,-0.7,1.9,2470.024,13.32,0.039,64.7